TimeAKDT,TemperatureF,Dew PointF,Humidity,Sea Level PressureIn,VisibilityMPH,Wind Direction,Wind SpeedMPH,Gust SpeedMPH,PrecipitationIn,Events,Conditions,WindDirDegrees,DateUTC
12:16 AM,-0.4,-5.8,78,29.80,1.8,Calm,Calm,-,N/A,,Overcast,0,2013-03-15 08:16:00
12:36 AM,-0.4,-5.8,78,29.80,1.0,Calm,Calm,-,N/A,,Overcast,0,2013-03-15 08:36:00
12:56 AM,-0.4,-4.0,85,29.80,1.5,Calm,Calm,-,N/A,,Overcast,0,2013-03-15 08:56:00
1:16 AM,-0.4,-5.8,78,29.80,1.2,South,3.5,-,N/A,,Overcast,170,2013-03-15 09:16:00
1:36 AM,-0.4,-5.8,78,29.80,1.5,South,3.5,-,N/A,,Overcast,180,2013-03-15 09:36:00
1:56 AM,-2.2,-9.4,71,29.80,3.0,South,3.5,-,N/A,,Overcast,190,2013-03-15 09:56:00
2:16 AM,-4.0,-7.6,85,29.79,10.0,South,3.5,-,N/A,,Overcast,170,2013-03-15 10:16:00
2:36 AM,-5.8,-11.2,77,29.80,10.0,South,4.6,-,N/A,,Scattered Clouds,180,2013-03-15 10:36:00
2:56 AM,-9.4,-18.4,65,29.80,10.0,SSW,4.6,-,N/A,,Clear,210,2013-03-15 10:56:00
3:16 AM,-14.8,-18.4,84,29.79,10.0,Calm,Calm,-,N/A,,Clear,0,2013-03-15 11:16:00
3:36 AM,-16.6,-22.0,76,29.78,10.0,Calm,Calm,-,N/A,,Mostly Cloudy,0,2013-03-15 11:36:00
3:56 AM,-16.6,-20.2,84,29.78,10.0,Calm,Calm,-,N/A,,Partly Cloudy,0,2013-03-15 11:56:00
4:16 AM,-14.8,-20.2,77,29.77,10.0,Calm,Calm,-,N/A,,Clear,0,2013-03-15 12:16:00
4:36 AM,-16.6,-20.2,84,29.77,10.0,Calm,Calm,-,N/A,,Clear,0,2013-03-15 12:36:00
4:56 AM,-18.4,-23.8,76,29.76,10.0,Calm,Calm,-,N/A,,Clear,0,2013-03-15 12:56:00
5:16 AM,-16.6,-18.4,92,29.76,3.0,SSW,3.5,-,N/A,,Mostly Cloudy,210,2013-03-15 13:16:00
5:36 AM,-18.4,-20.2,91,29.75,9.0,Calm,Calm,-,N/A,,Scattered Clouds,0,2013-03-15 13:36:00
5:56 AM,-16.6,-20.2,84,29.75,10.0,Calm,Calm,-,N/A,,Clear,0,2013-03-15 13:56:00
6:16 AM,-20.2,-23.8,83,29.74,10.0,Calm,Calm,-,N/A,,Clear,0,2013-03-15 14:16:00
6:36 AM,-18.4,-22.0,84,29.73,10.0,Calm,Calm,-,N/A,,Clear,0,2013-03-15 14:36:00
6:56 AM,-20.2,-25.6,76,29.73,10.0,South,4.6,-,N/A,,Clear,180,2013-03-15 14:56:00
7:16 AM,-18.4,-22.0,84,29.73,10.0,South,3.5,-,N/A,,Clear,180,2013-03-15 15:16:00
7:36 AM,-18.4,-20.2,91,29.73,10.0,South,4.6,-,N/A,,Clear,170,2013-03-15 15:36:00
7:56 AM,-20.2,-9999,N/A,29.73,10.0,South,5.8,-,N/A,,Clear,180,2013-03-15 15:56:00
8:16 AM,-18.4,-22.0,84,29.72,10.0,South,4.6,-,N/A,,Clear,170,2013-03-15 16:16:00
8:36 AM,-18.4,-22.0,84,29.72,10.0,South,8.1,-,N/A,,Clear,180,2013-03-15 16:36:00
8:56 AM,-14.8,-16.6,92,29.72,10.0,South,9.2,-,N/A,,Clear,190,2013-03-15 16:56:00
9:16 AM,-9.4,-11.2,92,29.71,10.0,South,6.9,-,N/A,,Clear,190,2013-03-15 17:16:00
9:36 AM,-9.4,-18.4,65,29.70,10.0,SSW,8.1,-,N/A,,Mostly Cloudy,200,2013-03-15 17:36:00
9:56 AM,-11.2,-14.8,84,29.70,10.0,South,4.6,-,N/A,,Mostly Cloudy,180,2013-03-15 17:56:00
10:16 AM,-11.2,-14.8,84,29.70,10.0,Calm,Calm,-,N/A,,Mostly Cloudy,0,2013-03-15 18:16:00
10:36 AM,-13.0,-20.2,70,29.70,10.0,South,3.5,-,N/A,,Mostly Cloudy,180,2013-03-15 18:36:00
10:56 AM,-9.4,-9.4,100,29.70,10.0,Calm,Calm,-,N/A,,Mostly Cloudy,0,2013-03-15 18:56:00
11:16 AM,-9.4,-13.0,84,29.69,10.0,SSE,6.9,-,N/A,,Scattered Clouds,150,2013-03-15 19:16:00
11:36 AM,-7.6,-9.4,92,29.69,10.0,SSE,8.1,-,N/A,,Clear,150,2013-03-15 19:36:00
11:56 AM,-5.8,-9.4,84,29.68,5.0,SSE,8.1,-,N/A,,Clear,160,2013-03-15 19:56:00
12:16 PM,-5.8,-9.4,84,29.67,10.0,SSE,6.9,-,N/A,,Clear,160,2013-03-15 20:16:00
12:36 PM,-5.8,-9.4,84,29.67,10.0,SSE,8.1,-,N/A,,Clear,160,2013-03-15 20:36:00
12:56 PM,-5.8,-9.4,84,29.66,10.0,SSE,6.9,-,N/A,,Partly Cloudy,150,2013-03-15 20:56:00
1:16 PM,-0.4,-0.4,100,29.65,10.0,SSE,8.1,-,N/A,,Partly Cloudy,150,2013-03-15 21:16:00
1:36 PM,-0.4,-2.2,92,29.66,10.0,SE,6.9,-,N/A,,Partly Cloudy,140,2013-03-15 21:36:00
1:56 PM,1.4,-2.2,85,29.65,10.0,ESE,10.4,-,N/A,,Partly Cloudy,120,2013-03-15 21:56:00
4:56 PM,8.6,5.0,85,29.58,1.0,SE,20.7,-,N/A,,Overcast,140,2013-03-16 00:56:00
5:16 PM,8.6,5.0,85,29.57,0.5,SE,21.9,-,N/A,,Overcast,130,2013-03-16 01:16:00
5:36 PM,10.4,6.8,85,29.55,0.5,SE,25.3,-,N/A,,Overcast,130,2013-03-16 01:36:00
5:56 PM,10.4,6.8,85,29.55,0.5,SE,23.0,-,N/A,,Overcast,130,2013-03-16 01:56:00
6:16 PM,10.4,6.8,85,29.54,0.2,SE,26.5,-,N/A,,Overcast,140,2013-03-16 02:16:00
6:36 PM,10.4,6.8,85,29.54,0.2,SE,25.3,-,N/A,,Overcast,140,2013-03-16 02:36:00
6:56 PM,10.4,6.8,85,29.53,0.5,ESE,19.6,-,N/A,,Overcast,120,2013-03-16 02:56:00
7:16 PM,10.4,8.6,92,29.51,0.5,ESE,21.9,-,N/A,,Overcast,120,2013-03-16 03:16:00
7:36 PM,12.2,8.6,85,29.50,0.2,ESE,26.5,-,N/A,,Overcast,120,2013-03-16 03:36:00
7:56 PM,10.4,6.8,85,29.49,0.2,ESE,25.3,-,N/A,,Overcast,110,2013-03-16 03:56:00
8:16 PM,12.2,8.6,85,29.48,0.2,ESE,26.5,29.9,N/A,,Overcast,120,2013-03-16 04:16:00
8:36 PM,12.2,8.6,85,29.48,0.2,ESE,27.6,-,N/A,,Overcast,110,2013-03-16 04:36:00
10:16 PM,10.4,6.8,85,29.45,0.2,ESE,33.4,38.0,N/A,,Overcast,120,2013-03-16 06:16:00
10:36 PM,10.4,6.8,85,29.44,0.2,ESE,32.2,36.8,N/A,,Overcast,110,2013-03-16 06:36:00
10:56 PM,10.4,6.8,85,29.43,0.2,ESE,31.1,34.5,N/A,,Overcast,110,2013-03-16 06:56:00
11:16 PM,10.4,6.8,85,29.43,0.2,ESE,28.8,-,N/A,,Overcast,120,2013-03-16 07:16:00
11:36 PM,10.4,6.8,85,29.43,0.2,ESE,26.5,-,N/A,,Overcast,110,2013-03-16 07:36:00
11:56 PM,10.4,8.6,92,29.42,0.5,ESE,24.2,28.8,N/A,,Overcast,110,2013-03-16 07:56:00